Hourly Weather Bolshie Peksely

Today, 15 June, Tuesday

Time Temperature Precipitation Wind Pressure Humidity
00:00 +17°C° 0.1 mm 0 mps 748 mmHg 88%
01:00 +16°C° 0.1 mm 0 mps 748 mmHg 88%
02:00 +16°C° 0.1 mm 0 mps 748 mmHg 89%
03:00 +16°C° 0 mm 0 mps 748 mmHg 90%
04:00 +17°C° 0 mm 0 mps 748 mmHg 89%
05:00 +17°C° 0 mm 0 mps 748 mmHg 88%
06:00 +18°C° 0 mm 0 mps 748 mmHg 86%
07:00 +20°C° 0.3 mm 0 mps 748 mmHg 82%
08:00 +23°C° 0.3 mm 1 mps 748 mmHg 78%
09:00 +24°C° 0 mm 1 mps 748 mmHg 73%
10:00 +25°C° 0.6 mm 1 mps 748 mmHg 68%
11:00 +26°C° 0.6 mm 1 mps 748 mmHg 64%
12:00 +26°C° 0.6 mm 2 mps 747 mmHg 59%
13:00 +27°C° 0.1 mm 1 mps 747 mmHg 58%
14:00 +27°C° 0.1 mm 1 mps 747 mmHg 57%
15:00 +28°C° 0.1 mm 1 mps 746 mmHg 56%
16:00 +27°C° 0.4 mm 1 mps 746 mmHg 64%
17:00 +26°C° 0.4 mm 1 mps 746 mmHg 71%
18:00 +25°C° 0.4 mm 2 mps 745 mmHg 79%
19:00 +23°C° 0.7 mm 1 mps 745 mmHg 83%
20:00 +21°C° 0.7 mm 1 mps 745 mmHg 87%
21:00 +20°C° 0.7 mm 1 mps 745 mmHg 91%
22:00 +19°C° 0.1 mm 1 mps 745 mmHg 92%
23:00 +19°C° 0.1 mm 1 mps 745 mmHg 92%

Tomorrow, 16 June, Wednesday

Time Temperature Precipitation Wind Pressure Humidity
00:00 +19°C° 0.1 mm 1 mps 744 mmHg 93%
01:00 +18°C° 0 mm 1 mps 744 mmHg 93%
02:00 +16°C° 0 mm 0 mps 744 mmHg 94%
03:00 +16°C° 0 mm 0 mps 744 mmHg 94%
04:00 +16°C° 0 mm 0 mps 744 mmHg 93%
05:00 +19°C° 0 mm 1 mps 744 mmHg 93%
06:00 +20°C° 0 mm 1 mps 744 mmHg 92%
07:00 +21°C° 0 mm 1 mps 744 mmHg 86%
08:00 +23°C° 0 mm 2 mps 744 mmHg 80%
09:00 +24°C° 0 mm 2 mps 745 mmHg 74%
10:00 +25°C° 0.9 mm 2 mps 745 mmHg 72%
11:00 +25°C° 0.9 mm 3 mps 745 mmHg 70%
12:00 +26°C° 0.9 mm 4 mps 745 mmHg 68%
13:00 +26°C° 0.5 mm 4 mps 745 mmHg 67%
14:00 +26°C° 0.5 mm 4 mps 745 mmHg 67%
15:00 +26°C° 0.5 mm 4 mps 745 mmHg 67%
16:00 +26°C° 0.3 mm 4 mps 746 mmHg 69%
17:00 +25°C° 0.3 mm 4 mps 746 mmHg 71%
18:00 +23°C° 0.3 mm 4 mps 747 mmHg 74%
19:00 +22°C° 0 mm 3 mps 747 mmHg 77%
20:00 +20°C° 0 mm 3 mps 748 mmHg 81%
21:00 +18°C° 0 mm 3 mps 748 mmHg 85%
22:00 +17°C° 0 mm 3 mps 749 mmHg 83%
23:00 +16°C° 0 mm 3 mps 749 mmHg 82%

Day after tomorrow, 17 June, Thursday

Time Temperature Precipitation Wind Pressure Humidity
00:00 +14°C° 0 mm 3 mps 750 mmHg 80%
01:00 +13°C° 0 mm 3 mps 750 mmHg 78%
02:00 +12°C° 0 mm 3 mps 751 mmHg 76%
03:00 +11°C° 0 mm 3 mps 751 mmHg 74%
04:00 +12°C° 0 mm 2 mps 752 mmHg 74%
05:00 +13°C° 0 mm 2 mps 752 mmHg 74%
06:00 +14°C° 0 mm 2 mps 752 mmHg 74%
07:00 +16°C° 0 mm 3 mps 753 mmHg 67%
08:00 +18°C° 0 mm 3 mps 753 mmHg 61%
09:00 +20°C° 0 mm 3 mps 754 mmHg 54%
10:00 +21°C° 0 mm 3 mps 754 mmHg 50%
11:00 +21°C° 0 mm 3 mps 754 mmHg 46%
12:00 +22°C° 0 mm 3 mps 754 mmHg 42%
13:00 +24°C° 0 mm 3 mps 754 mmHg 42%
14:00 +24°C° 0 mm 3 mps 754 mmHg 42%
15:00 +24°C° 0 mm 3 mps 754 mmHg 42%
16:00 +24°C° 0 mm 3 mps 754 mmHg 47%
17:00 +22°C° 0 mm 3 mps 755 mmHg 53%
18:00 +22°C° 0 mm 3 mps 755 mmHg 58%
19:00 +20°C° 0 mm 2 mps 755 mmHg 64%
20:00 +18°C° 0 mm 2 mps 755 mmHg 69%
21:00 +16°C° 0 mm 2 mps 756 mmHg 75%
22:00 +15°C° 0 mm 2 mps 756 mmHg 77%
23:00 +15°C° 0 mm 1 mps 756 mmHg 78%

18 June, Friday

Time Temperature Precipitation Wind Pressure Humidity
00:00 +14°C° 0 mm 1 mps 756 mmHg 80%
01:00 +14°C° 0 mm 1 mps 756 mmHg 80%
02:00 +13°C° 0 mm 1 mps 757 mmHg 81%
03:00 +13°C° 0 mm 1 mps 757 mmHg 81%
04:00 +14°C° 0 mm 1 mps 757 mmHg 80%
05:00 +15°C° 0 mm 1 mps 757 mmHg 78%
06:00 +16°C° 0 mm 1 mps 758 mmHg 77%
07:00 +18°C° 0 mm 1 mps 758 mmHg 71%
08:00 +20°C° 0 mm 1 mps 758 mmHg 65%
09:00 +22°C° 0 mm 1 mps 758 mmHg 59%
10:00 +23°C° 0 mm 1 mps 758 mmHg 55%
11:00 +24°C° 0 mm 1 mps 758 mmHg 50%
12:00 +25°C° 0 mm 1 mps 758 mmHg 46%
13:00 +26°C° 0 mm 1 mps 758 mmHg 46%
14:00 +26°C° 0 mm 1 mps 758 mmHg 45%
15:00 +26°C° 0 mm 1 mps 758 mmHg 45%
16:00 +26°C° 0 mm 1 mps 757 mmHg 51%
17:00 +25°C° 0 mm 1 mps 757 mmHg 56%
18:00 +25°C° 0 mm 2 mps 757 mmHg 62%
19:00 +23°C° 0 mm 2 mps 757 mmHg 67%
20:00 +20°C° 0 mm 2 mps 757 mmHg 73%
21:00 +18°C° 0 mm 2 mps 757 mmHg 78%
22:00 +18°C° 0 mm 2 mps 758 mmHg 80%
23:00 +17°C° 0 mm 2 mps 758 mmHg 81%

19 June, Saturday

Time Temperature Precipitation Wind Pressure Humidity
00:00 +16°C° 0 mm 2 mps 758 mmHg 83%
01:00 +16°C° 0 mm 2 mps 758 mmHg 84%
02:00 +15°C° 0 mm 2 mps 758 mmHg 86%
03:00 +15°C° 0 mm 2 mps 758 mmHg 87%
04:00 +16°C° 0 mm 2 mps 759 mmHg 85%
05:00 +17°C° 0 mm 2 mps 759 mmHg 83%
06:00 +17°C° 0 mm 2 mps 759 mmHg 81%
07:00 +19°C° 0 mm 2 mps 759 mmHg 75%
08:00 +21°C° 0 mm 2 mps 759 mmHg 69%
09:00 +24°C° 0 mm 2 mps 759 mmHg 63%
10:00 +24°C° 0 mm 2 mps 759 mmHg 60%
11:00 +25°C° 0 mm 3 mps 758 mmHg 57%
12:00 +26°C° 0 mm 3 mps 758 mmHg 54%
13:00 +27°C° 0 mm 3 mps 758 mmHg 54%
14:00 +27°C° 0 mm 3 mps 758 mmHg 53%
15:00 +27°C° 0 mm 3 mps 757 mmHg 53%
16:00 +27°C° 0 mm 3 mps 757 mmHg 58%
17:00 +26°C° 0 mm 3 mps 757 mmHg 62%
18:00 +26°C° 0 mm 3 mps 757 mmHg 67%
19:00 +24°C° 0 mm 3 mps 757 mmHg 73%
20:00 +21°C° 0 mm 2 mps 757 mmHg 80%
21:00 +19°C° 0 mm 2 mps 757 mmHg 86%
22:00 +19°C° 0 mm 2 mps 757 mmHg 88%
23:00 +18°C° 0 mm 2 mps 757 mmHg 90%

20 June, Sunday

Time Temperature Precipitation Wind Pressure Humidity
00:00 +17°C° 0 mm 2 mps 757 mmHg 91%
01:00 +17°C° 0 mm 2 mps 757 mmHg 92%
02:00 +17°C° 0 mm 2 mps 757 mmHg 93%
03:00 +16°C° 0 mm 2 mps 757 mmHg 93%
04:00 +17°C° 0 mm 2 mps 757 mmHg 91%
05:00 +18°C° 0 mm 2 mps 757 mmHg 88%
06:00 +18°C° 0 mm 2 mps 757 mmHg 85%
07:00 +20°C° 0 mm 2 mps 757 mmHg 79%
08:00 +23°C° 0 mm 2 mps 757 mmHg 73%
09:00 +25°C° 0 mm 2 mps 757 mmHg 67%
10:00 +26°C° 0 mm 2 mps 757 mmHg 63%
11:00 +27°C° 0 mm 2 mps 757 mmHg 59%
12:00 +28°C° 0 mm 2 mps 756 mmHg 56%
13:00 +28°C° 0 mm 2 mps 756 mmHg 54%
14:00 +28°C° 0 mm 2 mps 756 mmHg 53%
15:00 +29°C° 0 mm 2 mps 756 mmHg 52%
16:00 +28°C° 0 mm 2 mps 755 mmHg 57%
17:00 +28°C° 0 mm 2 mps 755 mmHg 61%
18:00 +27°C° 0 mm 2 mps 755 mmHg 66%
19:00 +25°C° 0 mm 2 mps 755 mmHg 71%
20:00 +24°C° 0 mm 2 mps 755 mmHg 77%
21:00 +21°C° 0 mm 2 mps 755 mmHg 82%
22:00 +20°C° 0 mm 2 mps 755 mmHg 84%
23:00 +19°C° 0 mm 2 mps 755 mmHg 86%
Show more